Change the Weather History Date:

Wednesday, October 16, 2013

  Actual Average Record
Temperature  
Mean Temperature 52 °F -  
Max Temperature 57 °F 54 °F 83 °F (1968)
Min Temperature 48 °F 36 °F 21 °F (2002)
Degree Days  
Heating Degree Days 12    
Growing Degree Days 2 (Base 50)    
Moisture  
Dew Point 49 °F    
Average Humidity 91    
Maximum Humidity 100    
Minimum Humidity 82    
Precipitation  
Precipitation 0.10 in - - ()
Sea Level Pressure  
Sea Level Pressure 29.72 in    
Wind  
Wind Speed 5 mph (WSW)    
Max Wind Speed 14 mph    
Max Gust Speed 21 mph    
Visibility 6 miles    
Events Fog , Rain    
Averages and records for this station are not official NWS values.
T = Trace of Precipitation, MM = Missing Value Source: NWS Daily Summary

Daily Weather History Graph

Daily Weather History Graph

Search for Another Location

Airport or City:

Trip Planner

Search our weather history database for the weather conditions in past years. The results will help you decide how hot, cold, wet, or windy it might be!

Date:

Astronomy

Oct. 16, 2013 Rise Set
Actual Time 7:57 AM EDT 6:51 PM EDT
Civil Twilight 7:27 AM EDT 7:21 PM EDT
Nautical Twilight 6:52 AM EDT 7:55 PM EDT
Astronomical Twilight 6:18 AM EDT 8:29 PM EDT
Moon 5:35 PM EDT (10/16) 5:17 AM EDT (10/16)
Length of Visible Light 11h 54m
Length of Day
10h 54m
Waxing Gibbous, 94% of the Moon is Illuminated
Oct 16
Waxing Gibbous
Oct 18
Full
Oct 26
Last Quarter
Nov 3
New
Nov 10
First Quarter

Hourly Weather History & Observations

Time (EDT) Temp. Dew Point Humidity Pressure Visibility Wind Dir Wind Speed Gust Speed Precip Events Conditions
12:47 AM 53.6 °F 53.6 °F 100% 29.70 in 4.0 mi SE 3.5 mph - N/A   Overcast
12:54 AM 54.0 °F 53.1 °F 97% 29.71 in 3.0 mi Calm Calm - N/A   Overcast
1:14 AM 53.6 °F 53.6 °F 100% 29.70 in 3.0 mi Calm Calm - N/A   Overcast
1:22 AM 53.6 °F 53.6 °F 100% 29.70 in 2.5 mi Calm Calm - N/A   Overcast
1:28 AM 53.6 °F 51.8 °F 94% 29.69 in 1.5 mi NE 3.5 mph - N/A   Mostly Cloudy
1:39 AM 51.8 °F 51.8 °F 100% 29.70 in 0.5 mi South 3.5 mph - N/A Fog Fog
1:52 AM 53.6 °F 53.6 °F 100% 29.69 in 2.0 mi Calm Calm - N/A   Mostly Cloudy
1:53 AM 54.0 °F 53.1 °F 97% 29.70 in 2.5 mi South 3.5 mph - N/A   Mostly Cloudy
1:57 AM 53.6 °F 53.6 °F 100% 29.69 in 4.0 mi South 3.5 mph - N/A   Mostly Cloudy
2:29 AM 51.8 °F 51.8 °F 100% 29.69 in 1.8 mi Calm Calm - N/A   Scattered Clouds
2:41 AM 53.6 °F 51.8 °F 94% 29.69 in 2.0 mi Calm Calm - N/A   Mostly Cloudy
2:49 AM 53.6 °F 51.8 °F 94% 29.69 in 5.0 mi SE 4.6 mph - N/A   Mostly Cloudy
2:54 AM 52.0 °F 51.1 °F 97% 29.70 in 3.0 mi SE 3.5 mph - N/A   Mostly Cloudy
2:57 AM 51.8 °F 51.8 °F 100% 29.69 in 2.0 mi SE 4.6 mph - N/A   Mostly Cloudy
3:01 AM 51.8 °F 51.8 °F 100% 29.69 in 1.0 mi SE 4.6 mph - N/A   Mostly Cloudy
3:08 AM 51.8 °F 51.8 °F 100% 29.68 in 0.8 mi SE 5.8 mph - N/A   Mostly Cloudy
3:16 AM 53.6 °F 51.8 °F 94% 29.68 in 2.0 mi ESE 3.5 mph - N/A   Mostly Cloudy
3:20 AM 53.6 °F 51.8 °F 94% 29.68 in 3.0 mi Calm Calm - N/A   Mostly Cloudy
3:28 AM 53.6 °F 51.8 °F 94% 29.68 in 2.5 mi SE 4.6 mph - N/A   Overcast
3:35 AM 53.6 °F 51.8 °F 94% 29.67 in 3.0 mi SE 4.6 mph - N/A   Overcast
3:42 AM 53.6 °F 53.6 °F 100% 29.67 in 3.0 mi SE 4.6 mph - N/A   Overcast
3:54 AM 55.0 °F 54.0 °F 96% 29.68 in 4.0 mi South 4.6 mph - N/A   Overcast
4:13 AM 57.2 °F 53.6 °F 88% 29.67 in 10.0 mi SSW 10.4 mph 17.3 mph N/A   Mostly Cloudy
4:54 AM 55.9 °F 51.1 °F 84% 29.67 in 10.0 mi SW 9.2 mph 17.3 mph N/A   Mostly Cloudy
5:54 AM 54.0 °F 48.9 °F 83% 29.67 in 10.0 mi SSW 10.4 mph 17.3 mph N/A   Overcast
6:54 AM 52.0 °F 48.0 °F 86% 29.67 in 10.0 mi SW 10.4 mph - 0.01 in   Overcast
7:54 AM 51.1 °F 46.9 °F 86% 29.67 in 10.0 mi SW 9.2 mph - 0.00 in Rain Light Rain
8:54 AM 51.1 °F 48.0 °F 89% 29.67 in 10.0 mi South 8.1 mph - 0.00 in   Overcast
9:54 AM 52.0 °F 48.0 °F 86% 29.68 in 10.0 mi SSW 3.5 mph - N/A   Overcast
10:54 AM 52.0 °F 48.0 °F 86% 29.67 in 10.0 mi SW 8.1 mph 20.7 mph 0.00 in Rain Light Rain
11:37 AM 51.8 °F 50.0 °F 94% 29.66 in 2.5 mi SW 8.1 mph - 0.02 in Rain Light Rain
11:47 AM 51.8 °F 50.0 °F 94% 29.66 in 5.0 mi SW 8.1 mph - 0.03 in Rain Light Rain
11:54 AM 52.0 °F 50.0 °F 93% 29.67 in 7.0 mi SW 6.9 mph - 0.03 in Rain Light Rain
12:26 PM 53.6 °F 51.8 °F 94% 29.66 in 3.0 mi SW 8.1 mph - 0.01 in Rain Light Rain
12:34 PM 53.6 °F 51.8 °F 94% 29.66 in 3.0 mi WSW 9.2 mph 16.1 mph 0.02 in Rain Light Rain
12:40 PM 53.6 °F 51.8 °F 94% 29.67 in 2.5 mi WNW 8.1 mph 16.1 mph 0.05 in Rain Light Rain
12:47 PM 53.6 °F 51.8 °F 94% 29.67 in 1.8 mi WNW 9.2 mph - 0.05 in Rain Light Rain
12:54 PM 53.1 °F 52.0 °F 96% 29.68 in 2.5 mi WNW 10.4 mph - 0.05 in Rain Light Rain
12:59 PM 53.6 °F 51.8 °F 94% 29.67 in 3.0 mi WNW 9.2 mph - 0.00 in   Overcast
1:54 PM 53.1 °F 50.0 °F 89% 29.69 in 10.0 mi WNW 10.4 mph - 0.01 in   Overcast
2:54 PM 52.0 °F 48.0 °F 86% 29.71 in 10.0 mi WNW 11.5 mph 19.6 mph 0.00 in   Overcast
3:54 PM 51.1 °F 46.9 °F 86% 29.73 in 10.0 mi WNW 11.5 mph - N/A   Overcast
4:44 PM 51.8 °F 46.4 °F 82% 29.73 in 10.0 mi WNW 11.5 mph - N/A   Overcast
4:54 PM 51.1 °F 46.0 °F 83% 29.74 in 10.0 mi WNW 11.5 mph - N/A   Overcast
5:08 PM 51.8 °F 46.4 °F 82% 29.73 in 10.0 mi WNW 11.5 mph - N/A   Overcast
5:42 PM 50.0 °F 44.6 °F 82% 29.74 in 10.0 mi West 10.4 mph - N/A   Overcast
5:54 PM 50.0 °F 45.0 °F 83% 29.76 in 10.0 mi West 11.5 mph - N/A   Overcast
6:22 PM 50.0 °F 44.6 °F 82% 29.76 in 10.0 mi West 9.2 mph - N/A   Overcast
6:36 PM 50.0 °F 44.6 °F 82% 29.76 in 10.0 mi WNW 13.8 mph - N/A   Overcast
6:54 PM 50.0 °F 45.0 °F 83% 29.78 in 10.0 mi West 11.5 mph - N/A   Overcast
7:27 PM 48.2 °F 44.6 °F 87% 29.79 in 10.0 mi WNW 10.4 mph - N/A   Overcast
7:54 PM 48.9 °F 44.1 °F 83% 29.81 in 10.0 mi NW 12.7 mph - N/A   Overcast
8:54 PM 48.0 °F 44.1 °F 86% 29.83 in 10.0 mi West 9.2 mph - 0.00 in   Overcast
9:10 PM 48.2 °F 44.6 °F 87% 29.82 in 10.0 mi WNW 8.1 mph - 0.00 in   Overcast
9:20 PM 48.2 °F 44.6 °F 87% 29.82 in 10.0 mi WNW 6.9 mph - 0.00 in Rain Light Rain
9:36 PM 48.2 °F 44.6 °F 87% 29.82 in 10.0 mi West 6.9 mph - 0.00 in Rain Light Rain
9:54 PM 48.0 °F 44.1 °F 86% 29.84 in 10.0 mi West 4.6 mph - 0.00 in Rain Light Rain
10:11 PM 48.2 °F 44.6 °F 87% 29.83 in 10.0 mi NW 9.2 mph - 0.00 in Rain Light Rain
10:26 PM 48.2 °F 44.6 °F 87% 29.83 in 10.0 mi WNW 8.1 mph - 0.00 in   Overcast
10:54 PM 48.0 °F 43.0 °F 83% 29.85 in 10.0 mi West 5.8 mph - 0.00 in   Overcast
11:54 PM 48.0 °F 43.0 °F 83% 29.85 in 10.0 mi WNW 6.9 mph - N/A   Overcast